Location: Newark
(58.8333°N, 23.5833°E)
Time: 02:11:14
(UTC+00:00)

Tiros 1 despin weight - Pass Details

Date: 20 November 2019
Orbit: 594 x 642 km, 48.2° (Epoch: 14 December)

Event Time Altitude Azimuth Distance (km) Brightness Sun altitude
Rises 16:15:22 0° 260° (W) 2,846 ? -17.3°
Reaches altitude 10° 16:18:57 10° 231° (SW) 1,950 ? -17.8°
Maximum altitude 16:20:43 12° 207° (SSW) 1,811 ? -18.0°
Drops below altitude 10° 16:22:31 10° 183° (S) 1,959 ? -18.2°
Enters shadow 16:25:57 - 155° (SSE) 2,816 ? -18.7°
Sets 16:26:08 0° 154° (SSE) 2,873 - -18.7°
